ALCOMSAT 1

Last updated on Thu Nov 06 2025 00:02:49 GMT+0000 (Coordinated Universal Time)

1 43039U 17078A 25309.28456132 -.00000174 00000+0 00000+0 0 9993 2 43039 0.0625 109.1746 0003437 115.5359 257.7376 1.00271187 29058
UTC large
Height (km)
Speed (km/s)
/
Latitude / Longitude
Inclination (degrees)
Orbital Period (minutes)
Azimuth
Elevation
Range (km)
Doppler Factor

Next 0 passes for location: London (51.5072 / 0.1276)

Sorry there are no passes over London.